Regional Weather Roundup
Issued by NWS Newport/Morehead, NC

Home | Current Version | Previous Version | Text Only | Print | Product List | Glossary On
Versions: 1 2 3 4 5 6 7 8 9 10 11 12 13 14 15 16 17 18 19 20 21 22 23 24 25 26 27 28 29 30 31 32 33 34 35 36 37 38 39 40 41 42 43 44 45 46 47 48 49 50
000
ASUS42 KMHX 310025
RWRMHX
WEATHER ROUNDUP FOR EASTERN NORTH CAROLINA
NATIONAL WEATHER SERVICE NEWPORT/MOREHEAD CITY NC
800 PM EDT THU MAR 30 2017

NOTE: "FAIR" INDICATES FEW OR NO CLOUDS BELOW 12,000 FEET
WITH NO SIGNIFICANT WEATHER AND/OR OBSTRUCTIONS TO VISIBILITY

NCZ015>017-031-032-045>047-102-103-310100-
NORTH COAST

CITY           SKY/WX    TMP DP  RH WIND       PRES   REMARKS
EDENTON        PTCLDY    55  48  78 E8        30.08F
ELIZABETH CITY CLOUDY    53  45  74 E12       30.08F
KITTY HAWK     NOT AVBL
MANTEO         CLOUDY    54  45  72 E10       30.09F

$$

NCZ045>047-081-094-103-104-310100-
CENTRAL COAST

CITY           SKY/WX    TMP DP  RH WIND       PRES   REMARKS
FRISCO         CLOUDY    67  53  61 SE10      30.07F

$$

NCZ095-097-098-100-101-310100-
SOUTHERN COAST

CITY           SKY/WX    TMP DP  RH WIND       PRES   REMARKS
BEAUFORT       CLEAR     65  57  75 SE8       30.06S
CEDAR ISLAND   NOT AVBL
JACKSONVILLE   PTCLDY    65  58  78 SE12      30.03F
PINEY ISLAND   PTCLDY   N/A N/A N/A E10       30.06S
WILMINGTON     MOCLDY    63  58  83 E6        30.02F


$$

NCZ011>013-027>030-043-044-078>080-089-090>093-098-310100-
COASTAL PLAIN

CITY           SKY/WX    TMP DP  RH WIND       PRES   REMARKS
AHOSKIE          N/A     56  46  69 SE7       30.06S
CLINTON        CLOUDY    66  56  72 CALM      30.03R
ELIZABETHTOWN  CLOUDY    66  56  71 SE6       30.01S
GOLDSBORO      CLOUDY    67  54  63 SE8       30.01R
GREENVILLE     CLOUDY    63  50  63 SE7       30.07R
HAVELOCK       PTCLDY    59  53  80 NE6       30.07S
KENANSVILLE    MOCLDY    64  54  68 SE6       30.03S
KINSTON        PTCLDY    64  52  63 CALM      30.05R
NEW BERN       CLEAR     59  53  80 E6        30.07R
RICHLANDS      CLEAR     64  55  72 E5        30.04F
ROCKY MOUNT    CLOUDY    64  50  60 SE5       30.02F
WASHINGTON     CLOUDY    60  49  67 SE8       30.06S
WHITEVILLE     MOCLDY    66  57  72 E7        30.00S

$$

AMZ130-135-150-152-154-156-158-170-250-252-270-ANZ085-086-088-633-658-670-310100-
MARINE OBSERVATIONS

STATION/POSITION TIME  TEMP    WIND        PRES    WAVE   SWELL
                       AIR SEA DIR/SP/G            HT/PER HT/PER
                 (UTC) (F)     (DEG/KT/KT) (MB)    (FT/S) (FT/S)
CHESAPEAKE LIGHT NOT AVBL
64 E VA BEACH    2350   50 48   80/ 14/ 16 1019.5    5/10   5/10
DUCK             0000   51 52   90/ 16/ 18 1018.3
2 E DUCK         0000      51                N/A     5/ 9   2/11
OREGON INLET     0000   53 55   70/ 11/ 15 1018.4
13E OREGON INLT  2348      49                N/A     5/ 9   5/ 9
HATTERAS CG      0000   65 61  150/ 11/ 15 1017.8
DIAMOND BUOY     2350   66 77  150/ 14/ 17 1018.6    5/ 9   5/ 9
CAPE LOOKOUT     0000   65     140/ 13/ 14 1017.5
BEAUFORT LAB     0000   65 63  150/  7/ 10 1016.9
30 SE NEW RVR IN 0008   67     150/ 16/ 19 1017.4
30 SE NEW RVR IN 2343      65                N/A     5/ 9   2/11
27 SE WRIGHTSVLE 0008   69 73  140/ 17/ 23 1015.8
5 SE WRIGHTSVLE  0008   64 59  140/ 10/ 16 1016.4
225 S CAPE HAT   2350   67 72  100/ 14/ 17 1017.9    6/10   5/10
41 SE CHARLESTON 2350   67 71   70/ 14/ 21 1014.7    5/10   3/10

$$




USA.gov is the U.S. government's official web portal to all federal, state and local government web resources and services.